Regional Weather Roundup
Issued by NWS Sioux Falls, SD

Home | Current Version | Previous Version | Text Only | Print | Product List | Glossary Off
Versions: 1 2 3 4 5 6 7 8 9 10 11 12 13 14 15 16 17 18 19 20 21 22 23 24 25 26 27 28 29 30 31 32 33 34 35 36 37 38 39 40 41 42 43 44 45 46 47 48 49 50

000
ASUS43 KFSD 091210
RWRFSD

WEATHER ROUNDUP FOR SE SOUTH DAKOTA/SW MINNESOTA/NW IOWA
NATIONAL WEATHER SERVICE SIOUX FALLS SD
600 AM CST FRI DEC 09 2016

NOTE: "FAIR" INDICATES FEW OR NO CLOUDS BELOW 12,000 FEET WITH NO
SIGNIFICANT WEATHER AND OR OBSTRUCTIONS TO VISIBILITY.


SDZ038>040-050-052>070-091300-
SOUTHEAST SOUTH DAKOTA

CITY           SKY/WX    TMP DP  RH WIND       PRES   REMARKS
BROOKINGS      CLOUDY    -4  -7  87 W6        30.52S WCI -16
CHAMBERLAIN    CLOUDY     4   0  82 E3        30.53S
6HR MIN TEMP:   4; 6HR MAX TEMP:   6;

HURON          CLOUDY    -4  -7  87 NW5       30.58S WCI -15
6HR MIN TEMP:  -5; 6HR MAX TEMP:  -1;

MADISON        FAIR      -2  -4  92 NW3       30.52S
MITCHELL       CLOUDY     0  -4  83 NW5       30.60R WCI -10
6HR MIN TEMP:  -3; 6HR MAX TEMP:   1;

SIOUX FALLS    PTCLDY    -1  -4  87 NW3       30.55F
6HR MIN TEMP:  -1; 6HR MAX TEMP:   4;

WINNER         FAIR       3  -1  83 E7        30.47F WCI  -9
YANKTON        PTCLDY     1  -4  78 NW3       30.57S
$$

MNZ071-072-080-081-089-090-097-098-091300-
SOUTHWEST MINNESOTA

CITY           SKY/WX    TMP DP  RH WIND       PRES   REMARKS
FAIRMONT       CLEAR      5   1  83 NW8       30.57R WCI  -8
JACKSON        CLEAR      3   0  85 NW5       30.53F WCI  -6
LUVERNE        CLEAR      0  -6  78 W3        30.55S
MARSHALL       CLEAR     -1  -5  82 W5        30.57F WCI -11
6HR MIN TEMP:  -1; 6HR MAX TEMP:   5;

MONTEVIDEO     PTCLDY     0  -4  85 NW3       30.59S
PIPESTONE      CLOUDY     1  -2  85 N3        30.49F
REDWOOD FALLS  CLEAR      2  -3  80 W7        30.57F WCI -11
TRACY          CLEAR      3  -1  83 CALM      30.55F
WINDOM         CLEAR      1  -2  85 CALM      30.53F
WORTHINGTON    CLEAR      1  -3  83 NW5       30.53S WCI  -9
$$

IAZ001>003-012>014-020>022-031-032-NEZ013-014-SDZ071-091300-
NORTHWEST IOWA

CITY           SKY/WX    TMP DP  RH WIND       PRES   REMARKS
CHEROKEE       CLEAR      3   0  90 CALM      30.58S
DENISON        CLEAR      5   1  85 CALM      30.57R
ESTHERVILLE    CLEAR      2  -1  88 NW5       30.54F WCI  -8
LE MARS        CLEAR      3   0  85 CALM      30.59F
ORANGE CITY    CLEAR      0  -2  92 CALM      30.55S
SHELDON        CLEAR      1   0  92 W5        30.54S WCI  -8
SIOUX CITY     CLOUDY     5   0  79 CALM      30.61F
6HR MIN TEMP:   4; 6HR MAX TEMP:  11;

SPENCER        CLEAR      2  -2  83 W12       30.56F WCI -15
6HR MIN TEMP:   1; 6HR MAX TEMP:   7;

STORM LAKE     CLEAR      3   0  85 W10       30.55S WCI -12
$$

ABBREVIATIONS USED IN REMARKS
   TC - TEMPERATURE IN CELSIUS
  WCI - WIND CHILL INDEX
   HX - HEAT INDEX
  VSB - VISIBILITY





USA.gov is the U.S. government's official web portal to all federal, state and local government web resources and services.